Provo, UT

3:57 AM MST on December 06, 2019 (GMT -0700)
Provo Municipal

Weather History for KPVU - October, 2019

Change the Weather History Date:

Thursday, October 17, 2019

  Actual Average Record
Temperature  
Mean Temperature 58 °F -  
Max Temperature 73 °F 61 °F 80 °F (1991)
Min Temperature 43 °F 35 °F 26 °F (1996)
Degree Days  
Heating Degree Days 6    
Growing Degree Days 8 (Base 50)    
Moisture  
Dew Point 29 °F    
Average Humidity 36    
Maximum Humidity 82    
Minimum Humidity 17    
Precipitation  
Precipitation 0.00 in - - ()
Sea Level Pressure  
Sea Level Pressure 29.68 in    
Wind  
Wind Speed 12 mph (South)    
Max Wind Speed 37 mph    
Max Gust Speed 46 mph    
Visibility 10 miles    
Events Rain    
Averages and records for this station are not official NWS values.
T = Trace of Precipitation, MM = Missing Value Source: NWS Daily Summary

Daily Weather History Graph

Daily Weather History Graph

Search for Another Location

Airport or City:

Astronomy

Oct. 17, 2019 Rise Set
Actual Time 7:39 AM MDT 6:44 PM MDT
Civil Twilight 7:12 AM MDT 7:11 PM MDT
Nautical Twilight 6:40 AM MDT 7:43 PM MDT
Astronomical Twilight 6:09 AM MDT 8:14 PM MDT
Moon 9:18 PM MDT (10/17) 11:15 AM MDT (10/17)
Length of Visible Light 11h 59m
Length of Day
11h 04m
Waning Gibbous, 86% of the Moon is Illuminated
Oct 17
Waning Gibbous
Oct 21
Last Quarter
Oct 27
New
Nov 4
First Quarter
Nov 12
Full

Hourly Weather History & Observations

Time (MDT) Temp. Windchill Dew Point Humidity Pressure Visibility Wind Dir Wind Speed Gust Speed Precip Events Conditions
12:56 AM 57.0 °F - 19.0 °F 23% 29.84 in 10.0 mi ESE 10.4 mph - N/A   Clear
1:56 AM 53.1 °F - 23.0 °F 31% 29.83 in 10.0 mi ESE 5.8 mph - N/A   Clear
2:56 AM 52.0 °F - 21.9 °F 31% 29.80 in 10.0 mi ESE 6.9 mph - N/A   Clear
3:56 AM 46.9 °F - 24.1 °F 41% 29.77 in 10.0 mi East 6.9 mph - N/A   Clear
4:56 AM 59.0 °F - 21.0 °F 23% 29.72 in 10.0 mi ESE 12.7 mph - N/A   Clear
5:56 AM 55.0 °F - 17.1 °F 23% 29.73 in 10.0 mi East 6.9 mph - N/A   Clear
6:56 AM 54.0 °F - 21.0 °F 28% 29.74 in 10.0 mi East 4.6 mph - N/A   Mostly Cloudy
7:56 AM 53.1 °F - 19.9 °F 27% 29.74 in 10.0 mi SE 12.7 mph - N/A   Mostly Cloudy
8:56 AM 53.1 °F - 21.9 °F 30% 29.75 in 10.0 mi ESE 4.6 mph - N/A   Mostly Cloudy
9:56 AM 64.0 °F - 21.9 °F 20% 29.72 in 10.0 mi SSE 6.9 mph - N/A   Mostly Cloudy
10:56 AM 66.0 °F - 19.9 °F 17% 29.70 in 10.0 mi SSE 11.5 mph - N/A   Mostly Cloudy
11:56 AM 71.1 °F - 24.1 °F 17% 29.66 in 10.0 mi SSW 8.1 mph - N/A   Overcast
12:56 PM 70.0 °F - 30.9 °F 24% 29.63 in 10.0 mi SSW 13.8 mph - N/A   Overcast
1:56 PM 70.0 °F - 34.0 °F 27% 29.58 in 10.0 mi SSW 16.1 mph - N/A   Mostly Cloudy
2:56 PM 66.9 °F - 37.0 °F 33% 29.57 in 10.0 mi WSW 12.7 mph - N/A   Mostly Cloudy
3:56 PM 66.0 °F - 36.0 °F 33% 29.55 in 10.0 mi SW 10.4 mph - N/A   Mostly Cloudy
4:56 PM 64.9 °F - 37.0 °F 36% 29.51 in 10.0 mi SW 12.7 mph - N/A   Overcast
5:56 PM 66.0 °F - 36.0 °F 33% 29.51 in 10.0 mi SSW 9.2 mph - N/A   Mostly Cloudy
6:56 PM 63.0 °F - 37.0 °F 38% 29.51 in 10.0 mi SSW 8.1 mph - N/A   Mostly Cloudy
7:18 PM 62.6 °F - 35.6 °F 37% 29.64 in 10.0 mi NNW 20.7 mph 27.6 mph N/A   Overcast
7:36 PM 60.8 °F - 33.8 °F 36% 29.65 in 10.0 mi NNW 20.7 mph 35.7 mph N/A   Overcast
7:56 PM 61.0 °F - 34.0 °F 36% 29.57 in 10.0 mi NNW 28.8 mph 41.4 mph N/A   Overcast
8:56 PM 53.1 °F - 39.0 °F 59% 29.65 in 10.0 mi NNW 36.8 mph 46.0 mph N/A   Overcast
9:56 PM 48.9 °F - 41.0 °F 74% 29.69 in 10.0 mi NW 33.4 mph 46.0 mph N/A   Overcast
10:56 PM 46.9 °F - 39.9 °F 77% 29.73 in 10.0 mi NW 34.5 mph 43.7 mph N/A   Overcast
11:56 PM 43.0 °F 32.9 °F 37.9 °F 82% 29.79 in 10.0 mi NNW 27.6 mph 34.5 mph 0.00 in Rain Light Rain